{"data":{"norad_id":60730,"epoch":"2026-05-25T03:01:13.605024Z","epoch_age_seconds":60605,"freshness":"FRESH","line1":"1 60730U 24152L   26145.12585191  .00000845  00000+0  11828-4 0  9990","line2":"2 60730  53.1589  99.1988 0000881  88.5199 271.5920 15.69714050100858","mean_motion":15.6971405,"eccentricity":8.81e-5,"inclination_deg":53.1589,"raan_deg":99.1988,"arg_perigee_deg":88.5199,"mean_anomaly_deg":271.592,"bstar":1.1828e-5,"rev_number":10085,"period_min":91.736453527953,"perigee_km":359.12155611958,"apogee_km":360.30876567033,"semimajor_km":6737.852160895,"source":"CELESTRAK","updated_at":"2026-05-25T13:38:19.309601Z"}}